| time (UTC) | temp F | wind direction | speed MPH | gust MPH | rain 1hr in | rain 24hr in | rain mn in | humidity % | barometer mb |
| 20260902232309 | 80 | 359 | 0.0 | 0.0 | 0.00 | 0.00 | 0.01 | 87 | 974.4 |
| 20260902231629 | 80 | 359 | 0.0 | 0.0 | 0.00 | 0.00 | 0.01 | 86 | 974.3 |
| 20260902230952 | 80 | 359 | 0.0 | 0.0 | 0.00 | 0.00 | 0.01 | 85 | 974.2 |
| 20260902230311 | 81 | 359 | 0.0 | 0.0 | 0.00 | 0.00 | 0.01 | 85 | 974.1 |
| 20260902225634 | 81 | 359 | 0.0 | 0.0 | 0.00 | 0.00 | 0.01 | 85 | 974.2 |
| 20260902224953 | 81 | 359 | 0.0 | 0.0 | 0.00 | 0.00 | 0.01 | 85 | 974.1 |
| 20260902224316 | 81 | 359 | 0.0 | 0.0 | 0.00 | 0.00 | 0.01 | 84 | 974.2 |
| 20260902223635 | 81 | 359 | 0.0 | 0.0 | 0.00 | 0.00 | 0.01 | 83 | 974.3 |
| 20260902222958 | 81 | 359 | 0.0 | 0.0 | 0.00 | 0.00 | 0.01 | 83 | 974.3 |
| 20260902221640 | 81 | 359 | 0.0 | 0.0 | 0.00 | 0.00 | 0.01 | 82 | 974.3 |
| 20260902221000 | 81 | 359 | 0.0 | 0.0 | 0.00 | 0.00 | 0.01 | 82 | 974.0 |
| 20260902220323 | 81 | 359 | 0.0 | 0.0 | 0.00 | 0.00 | 0.01 | 81 | 973.9 |
| 20260902215642 | 82 | 359 | 0.0 | 0.0 | 0.00 | 0.00 | 0.01 | 79 | 973.8 |
| 20260902215005 | 82 | 359 | 0.0 | 0.0 | 0.00 | 0.00 | 0.01 | 78 | 973.9 |
| 20260902214427 | 82 | 359 | 0.0 | 0.0 | 0.00 | 0.00 | 0.01 | 78 | 973.9 |
| 20260902214324 | 82 | 359 | 0.0 | 0.0 | 0.00 | 0.00 | 0.01 | 78 | 973.9 |
| 20260902213647 | 82 | 359 | 0.0 | 0.0 | 0.00 | 0.00 | 0.01 | 79 | 974.0 |
| 20260902213006 | 82 | 359 | 0.0 | 0.0 | 0.00 | 0.00 | 0.01 | 79 | 974.0 |
| 20260902212329 | 83 | 359 | 0.0 | 0.0 | 0.00 | 0.00 | 0.01 | 80 | 973.9 |
| 20260902211729 | 83 | 359 | 0.0 | 0.0 | 0.00 | 0.00 | 0.01 | 80 | 973.7 |
| 20260902211648 | 83 | 359 | 0.0 | 0.0 | 0.00 | 0.00 | 0.01 | 80 | 973.7 |
| 20260902211055 | 82 | 359 | 0.0 | 0.0 | 0.00 | 0.00 | 0.01 | 81 | 973.8 |
| 20260902211011 | 82 | 359 | 0.0 | 0.0 | 0.00 | 0.00 | 0.01 | 81 | 973.8 |
| 20260902210423 | 83 | 359 | 0.0 | 0.0 | 0.00 | 0.00 | 0.01 | 81 | 973.9 |
| 20260902210331 | 83 | 359 | 0.0 | 0.0 | 0.00 | 0.00 | 0.01 | 81 | 973.9 |
| 20260902205654 | 83 | 359 | 0.0 | 0.0 | 0.00 | 0.00 | 0.01 | 81 | 973.9 |
| 20260902205013 | 83 | 359 | 0.0 | 0.0 | 0.00 | 0.00 | 0.01 | 81 | 974.0 |
| 20260902204336 | 83 | 359 | 0.0 | 0.0 | 0.00 | 0.00 | 0.01 | 83 | 974.0 |
| 20260902203655 | 83 | 359 | 0.0 | 0.0 | 0.00 | 0.00 | 0.01 | 84 | 974.1 |
| 20260902203057 | 83 | 359 | 0.0 | 0.0 | 0.00 | 0.00 | 0.01 | 85 | 974.1 |
| 20260902203018 | 83 | 359 | 0.0 | 0.0 | 0.00 | 0.00 | 0.01 | 85 | 974.1 |
| 20260902201700 | 84 | 359 | 0.0 | 0.0 | 0.00 | 0.00 | 0.01 | 81 | 973.9 |
| 20260902201019 | 84 | 359 | 0.0 | 0.0 | 0.00 | 0.00 | 0.01 | 81 | 973.8 |
| 20260902200342 | 84 | 359 | 0.0 | 0.0 | 0.00 | 0.00 | 0.01 | 81 | 974.1 |
| 20260902195142 | 84 | 359 | 0.0 | 0.0 | 0.00 | 0.00 | 0.01 | 83 | 974.1 |
| 20260902195025 | 84 | 359 | 0.0 | 0.0 | 0.00 | 0.00 | 0.01 | 83 | 974.1 |
| 20260902194452 | 84 | 359 | 0.0 | 0.0 | 0.00 | 0.00 | 0.01 | 83 | 974.1 |
| 20260902194344 | 84 | 359 | 0.0 | 0.0 | 0.00 | 0.00 | 0.01 | 83 | 974.1 |
| 20260902193823 | 84 | 359 | 0.0 | 0.0 | 0.00 | 0.00 | 0.01 | 83 | 974.4 |
| 20260902193707 | 84 | 359 | 0.0 | 0.0 | 0.00 | 0.00 | 0.01 | 83 | 974.4 |
| 20260902193026 | 84 | 359 | 0.0 | 0.0 | 0.00 | 0.00 | 0.01 | 84 | 974.4 |
| 20260902192438 | 84 | 359 | 0.0 | 0.0 | 0.00 | 0.00 | 0.01 | 81 | 974.4 |
| 20260902192349 | 84 | 359 | 0.0 | 0.0 | 0.00 | 0.00 | 0.01 | 81 | 974.4 |
| 20260902191810 | 84 | 359 | 0.0 | 0.0 | 0.00 | 0.00 | 0.01 | 78 | 974.4 |
| 20260902191708 | 84 | 359 | 0.0 | 0.0 | 0.00 | 0.00 | 0.01 | 78 | 974.4 |
| 20260902191142 | 84 | 359 | 0.0 | 0.0 | 0.00 | 0.00 | 0.01 | 78 | 974.5 |
| 20260902191031 | 84 | 359 | 0.0 | 0.0 | 0.00 | 0.00 | 0.01 | 78 | 974.5 |
| 20260902190350 | 84 | 359 | 0.0 | 0.0 | 0.00 | 0.00 | 0.01 | 79 | 974.3 |
| 20260902185752 | 84 | 359 | 0.0 | 0.0 | 0.00 | 0.00 | 0.01 | 80 | 974.3 |
| 20260902185713 | 84 | 359 | 0.0 | 0.0 | 0.00 | 0.00 | 0.01 | 80 | 974.3 |
| 20260902185136 | 84 | 359 | 0.0 | 0.0 | 0.00 | 0.00 | 0.01 | 80 | 974.3 |
| 20260902185033 | 84 | 359 | 0.0 | 0.0 | 0.00 | 0.00 | 0.01 | 80 | 974.3 |
| 20260902184452 | 84 | 359 | 0.0 | 0.0 | 0.00 | 0.00 | 0.01 | 78 | 974.3 |
| 20260902184355 | 84 | 359 | 0.0 | 0.0 | 0.00 | 0.00 | 0.01 | 78 | 974.3 |
| 20260902183753 | 84 | 359 | 0.0 | 0.0 | 0.00 | 0.00 | 0.01 | 74 | 974.4 |
| 20260902183715 | 84 | 359 | 0.0 | 0.0 | 0.00 | 0.00 | 0.01 | 74 | 974.4 |
| 20260902183119 | 84 | 359 | 6.0 | 0.0 | 0.00 | 0.00 | 0.01 | 74 | 974.4 |
| 20260902183038 | 84 | 359 | 6.0 | 0.0 | 0.00 | 0.00 | 0.01 | 74 | 974.4 |
| 20260902182452 | 84 | 245 | 5.0 | 7.0 | 0.00 | 0.00 | 0.01 | 74 | 974.4 |
| 20260902182357 | 84 | 245 | 5.0 | 7.0 | 0.00 | 0.00 | 0.01 | 74 | 974.4 |
| 20260902181720 | 84 | 218 | 6.0 | 10.0 | 0.00 | 0.00 | 0.01 | 74 | 974.4 |
| 20260902181039 | 84 | 203 | 6.0 | 5.0 | 0.00 | 0.00 | 0.01 | 75 | 974.4 |
| 20260902180402 | 84 | 165 | 7.0 | 6.0 | 0.00 | 0.00 | 0.01 | 74 | 974.8 |
| 20260902175722 | 83 | 219 | 4.0 | 0.0 | 0.00 | 0.00 | 0.01 | 77 | 974.8 |
| 20260902175044 | 83 | 0 | 0.0 | 0.0 | 0.00 | 0.00 | 0.01 | 77 | 974.8 |
| 20260902174452 | 83 | 0 | 1.0 | 0.0 | 0.00 | 0.00 | 0.01 | 74 | 975.1 |
| 20260902174404 | 83 | 0 | 1.0 | 0.0 | 0.00 | 0.00 | 0.01 | 74 | 975.1 |
| 20260902173808 | 84 | 249 | 0.0 | 0.0 | 0.00 | 0.00 | 0.01 | 75 | 975.1 |
| 20260902173727 | 84 | 249 | 0.0 | 0.0 | 0.00 | 0.00 | 0.01 | 75 | 975.1 |
| 20260902173122 | 83 | 359 | 3.0 | 3.0 | 0.00 | 0.00 | 0.01 | 74 | 974.9 |
| 20260902173046 | 83 | 359 | 3.0 | 3.0 | 0.00 | 0.00 | 0.01 | 74 | 974.9 |
| 20260902172409 | 83 | 177 | 7.0 | 7.0 | 0.00 | 0.00 | 0.01 | 75 | 974.8 |
| 20260902171728 | 83 | 359 | 3.0 | 0.0 | 0.00 | 0.00 | 0.01 | 75 | 974.8 |
| 20260902171051 | 83 | 166 | 0.0 | 8.0 | 0.00 | 0.00 | 0.01 | 74 | 974.8 |
| 20260902170411 | 83 | 359 | 6.0 | 6.0 | 0.00 | 0.00 | 0.01 | 74 | 975.1 |
| 20260902165821 | 82 | 231 | 5.0 | 6.0 | 0.00 | 0.00 | 0.01 | 74 | 975.0 |
| 20260902165734 | 82 | 231 | 5.0 | 6.0 | 0.00 | 0.00 | 0.01 | 74 | 975.0 |
| 20260902165053 | 82 | 236 | 5.0 | 5.0 | 0.00 | 0.00 | 0.01 | 73 | 975.2 |
| 20260902164447 | 82 | 3 | 0.0 | 7.0 | 0.00 | 0.00 | 0.01 | 75 | 975.1 |
| 20260902164416 | 82 | 3 | 0.0 | 7.0 | 0.00 | 0.00 | 0.01 | 75 | 975.1 |
| 20260902163833 | 82 | 359 | 0.0 | 0.0 | 0.00 | 0.00 | 0.01 | 78 | 975.1 |
| 20260902163735 | 82 | 359 | 0.0 | 0.0 | 0.00 | 0.00 | 0.01 | 78 | 975.1 |
| 20260902163142 | 82 | 221 | 0.0 | 0.0 | 0.00 | 0.00 | 0.01 | 78 | 975.2 |
| 20260902163058 | 82 | 221 | 0.0 | 0.0 | 0.00 | 0.00 | 0.01 | 78 | 975.2 |
| 20260902162417 | 82 | 221 | 0.0 | 0.0 | 0.00 | 0.00 | 0.01 | 78 | 975.2 |
| 20260902161740 | 81 | 221 | 0.0 | 0.0 | 0.00 | 0.00 | 0.01 | 78 | 975.0 |
| 20260902161142 | 81 | 221 | 0.0 | 0.0 | 0.00 | 0.00 | 0.01 | 78 | 975.1 |
| 20260902161100 | 81 | 221 | 0.0 | 0.0 | 0.00 | 0.00 | 0.01 | 78 | 975.1 |
| 20260902155742 | 81 | 156 | 1.0 | 0.0 | 0.00 | 0.00 | 0.01 | 79 | 975.2 |
| 20260902153107 | 81 | 128 | 3.0 | 0.0 | 0.00 | 0.00 | 0.01 | 78 | 974.9 |
| 20260902151749 | 81 | 174 | 5.0 | 6.0 | 0.00 | 0.00 | 0.01 | 75 | 974.7 |
| 20260902151112 | 81 | 117 | 6.0 | 3.0 | 0.00 | 0.00 | 0.01 | 74 | 974.7 |
| 20260902150432 | 81 | 60 | 1.0 | 0.0 | 0.00 | 0.00 | 0.01 | 74 | 974.8 |
| 20260902145114 | 81 | 129 | 1.0 | 3.0 | 0.00 | 0.00 | 0.01 | 76 | 975.0 |
| 20260902144437 | 80 | 41 | 0.0 | 0.0 | 0.00 | 0.00 | 0.01 | 78 | 975.2 |
| 20260902143120 | 79 | 91 | 0.0 | 0.0 | 0.00 | 0.00 | 0.01 | 83 | 975.5 |
| 20260902142439 | 78 | 72 | 0.0 | 0.0 | 0.00 | 0.00 | 0.01 | 85 | 975.5 |
| 20260902141802 | 78 | 84 | 3.0 | 3.0 | 0.00 | 0.00 | 0.01 | 88 | 975.7 |
| 20260902135804 | 76 | 359 | 0.0 | 0.0 | 0.00 | 0.00 | 0.01 | 94 | 976.2 |
| 20260902135127 | 75 | 27 | 6.0 | 6.0 | 0.00 | 0.00 | 0.01 | 95 | 976.4 |
| 20260902133810 | 74 | 328 | 5.0 | 7.0 | 0.00 | 0.00 | 0.01 | 100 | 976.7 |
| 20260902133130 | 74 | 3 | 5.0 | 7.0 | 0.00 | 0.00 | 0.01 | 100 | 976.9 |
| 20260902132452 | 73 | 336 | 6.0 | 5.0 | 0.00 | 0.00 | 0.01 | 100 | 977.0 |
| 20260902131812 | 73 | 8 | 7.0 | 9.0 | 0.00 | 0.00 | 0.01 | 100 | 977.2 |
| 20260902131135 | 73 | 335 | 4.0 | 4.0 | 0.00 | 0.00 | 0.01 | 100 | 977.3 |
| 20260902130455 | 73 | 3 | 3.0 | 4.0 | 0.00 | 0.00 | 0.01 | 100 | 977.5 |
| 20260902125818 | 73 | 322 | 6.0 | 6.0 | 0.00 | 0.00 | 0.01 | 100 | 977.6 |
| 20260902124500 | 73 | 222 | 4.0 | 2.0 | 0.00 | 0.00 | 0.01 | 100 | 977.4 |
| 20260902121144 | 73 | 169 | 0.0 | 0.0 | 0.00 | 0.00 | 0.01 | 100 | 976.4 |
| 20260902113151 | 72 | 179 | 3.0 | 1.0 | 0.00 | 0.00 | 0.01 | 100 | 976.7 |
| 20260902112514 | 72 | 173 | 0.0 | 0.0 | 0.00 | 0.00 | 0.01 | 100 | 976.6 |
| 20260902110516 | 72 | 173 | 0.0 | 0.0 | 0.00 | 0.00 | 0.01 | 100 | 976.4 |
| 20260902105841 | 72 | 173 | 0.0 | 0.0 | 0.00 | 0.00 | 0.01 | 100 | 976.3 |
| 20260902105200 | 72 | 173 | 0.0 | 0.0 | 0.00 | 0.00 | 0.01 | 100 | 976.3 |
| 20260902104523 | 72 | 173 | 0.0 | 0.0 | 0.00 | 0.00 | 0.01 | 100 | 976.3 |
| 20260902102524 | 72 | 173 | 0.0 | 0.0 | 0.00 | 0.00 | 0.01 | 100 | 976.2 |
| 20260902095850 | 73 | 173 | 0.0 | 0.0 | 0.01 | 0.00 | 0.01 | 100 | 976.4 |
| 20260902095213 | 73 | 173 | 0.0 | 0.0 | 0.01 | 0.00 | 0.01 | 100 | 976.4 |
| 20260902093856 | 73 | 173 | 0.0 | 0.0 | 0.01 | 0.00 | 0.01 | 100 | 976.4 |
| 20260902092538 | 73 | 173 | 0.0 | 0.0 | 0.01 | 0.00 | 0.01 | 100 | 976.4 |
| 20260902091856 | 73 | 173 | 0.0 | 0.0 | 0.01 | 0.00 | 0.01 | 100 | 976.6 |
| 20260902090540 | 73 | 173 | 0.0 | 0.0 | 0.01 | 0.00 | 0.01 | 100 | 976.6 |
| 20260902085221 | 74 | 173 | 0.0 | 0.0 | 0.00 | 0.00 | 0.01 | 100 | 976.5 |
| 20260902084546 | 74 | 173 | 0.0 | 0.0 | 0.00 | 0.00 | 0.01 | 100 | 976.3 |
| 20260902083905 | 74 | 173 | 0.0 | 0.0 | 0.00 | 0.00 | 0.01 | 100 | 976.1 |
| 20260902083228 | 75 | 173 | 0.0 | 0.0 | 0.00 | 0.00 | 0.00 | 100 | 976.2 |
| 20260902082548 | 75 | 173 | 0.0 | 0.0 | 0.00 | 0.00 | 0.00 | 100 | 976.5 |
| 20260902081911 | 75 | 173 | 0.0 | 0.0 | 0.00 | 0.00 | 0.00 | 100 | 976.5 |
| 20260902075913 | 75 | 173 | 0.0 | 0.0 | 0.00 | 0.00 | 0.00 | 100 | 976.0 |
| 20260902074555 | 74 | 173 | 0.0 | 0.0 | 0.00 | 0.00 | 0.00 | 100 | 975.8 |
| 20260902073918 | 74 | 173 | 0.0 | 0.0 | 0.00 | 0.00 | 0.00 | 100 | 976.0 |
| 20260902073238 | 74 | 173 | 0.0 | 0.0 | 0.00 | 0.00 | 0.00 | 100 | 976.2 |
| 20260902072601 | 74 | 173 | 0.0 | 0.0 | 0.00 | 0.00 | 0.00 | 100 | 976.2 |
| 20260902071920 | 74 | 173 | 0.0 | 0.0 | 0.00 | 0.00 | 0.00 | 100 | 976.2 |
| 20260902071244 | 74 | 173 | 0.0 | 0.0 | 0.00 | 0.00 | 0.00 | 100 | 976.2 |
| 20260902070603 | 74 | 173 | 0.0 | 0.0 | 0.00 | 0.00 | 0.00 | 100 | 976.2 |
| 20260902065926 | 74 | 173 | 0.0 | 0.0 | 0.00 | 0.00 | 0.00 | 100 | 976.2 |
| 20260902064608 | 74 | 173 | 0.0 | 0.0 | 0.00 | 0.00 | 0.00 | 100 | 976.1 |
| 20260902064148 | 74 | 173 | 0.0 | 0.0 | 0.00 | 0.00 | 0.00 | 100 | 976.1 |
| 20260902063927 | 74 | 173 | 0.0 | 0.0 | 0.00 | 0.00 | 0.00 | 100 | 976.1 |
| 20260902063250 | 74 | 173 | 0.0 | 0.0 | 0.00 | 0.00 | 0.00 | 100 | 976.2 |
| 20260902062610 | 74 | 173 | 0.0 | 0.0 | 0.00 | 0.00 | 0.00 | 100 | 976.2 |
| 20260902061436 | 74 | 173 | 0.0 | 0.0 | 0.00 | 0.00 | 0.00 | 100 | 976.2 |
| 20260902061252 | 74 | 173 | 0.0 | 0.0 | 0.00 | 0.00 | 0.00 | 100 | 976.2 |
| 20260902060615 | 74 | 173 | 0.0 | 0.0 | 0.00 | 0.00 | 0.00 | 100 | 976.1 |
| 20260902055935 | 74 | 173 | 0.0 | 0.0 | 0.00 | 0.00 | 0.00 | 100 | 976.0 |
| 20260902054617 | 74 | 173 | 0.0 | 0.0 | 0.00 | 0.00 | 0.00 | 100 | 975.9 |
| 20260902053940 | 75 | 173 | 0.0 | 0.0 | 0.00 | 0.00 | 0.00 | 100 | 975.7 |
| 20260902053337 | 75 | 173 | 0.0 | 0.0 | 0.00 | 0.00 | 0.00 | 100 | 975.7 |
| 20260902053259 | 75 | 173 | 0.0 | 0.0 | 0.00 | 0.00 | 0.00 | 100 | 975.7 |
| 20260902052622 | 75 | 173 | 0.0 | 0.0 | 0.00 | 0.00 | 0.00 | 100 | 975.8 |
| 20260902051942 | 75 | 173 | 0.0 | 0.0 | 0.00 | 0.00 | 0.00 | 100 | 975.9 |
| 20260902051305 | 75 | 173 | 0.0 | 0.0 | 0.00 | 0.00 | 0.00 | 100 | 975.8 |
| 20260902050624 | 75 | 173 | 0.0 | 0.0 | 0.00 | 0.00 | 0.00 | 100 | 975.8 |
| 20260902045306 | 75 | 173 | 0.0 | 0.0 | 0.00 | 0.00 | 0.00 | 100 | 975.7 |
| 20260902044629 | 75 | 173 | 0.0 | 0.0 | 0.00 | 0.00 | 0.00 | 100 | 975.8 |
| 20260902044142 | 75 | 173 | 0.0 | 0.0 | 0.00 | 0.00 | 0.00 | 100 | 976.0 |
| 20260902043949 | 75 | 173 | 0.0 | 0.0 | 0.00 | 0.00 | 0.00 | 100 | 976.0 |
| 20260902042631 | 75 | 173 | 0.0 | 0.0 | 0.00 | 0.00 | 0.00 | 100 | 976.1 |
| 20260902040635 | 75 | 173 | 0.0 | 0.0 | 0.00 | 0.00 | 0.00 | 100 | 975.9 |
| 20260902035954 | 75 | 173 | 0.0 | 0.0 | 0.00 | 0.00 | 0.00 | 100 | 975.7 |
| 20260902035317 | 76 | 173 | 0.0 | 0.0 | 0.00 | 0.03 | 0.00 | 100 | 975.7 |
| 20260902034637 | 76 | 173 | 0.0 | 0.0 | 0.00 | 0.03 | 0.00 | 100 | 975.8 |
| 20260902034000 | 76 | 173 | 0.0 | 0.0 | 0.00 | 0.03 | 0.00 | 100 | 976.0 |
| 20260902032118 | 76 | 173 | 0.0 | 0.0 | 0.00 | 0.03 | 0.00 | 100 | 975.9 |
| 20260902032001 | 76 | 173 | 0.0 | 0.0 | 0.00 | 0.03 | 0.00 | 100 | 975.9 |
| 20260902031444 | 76 | 173 | 0.0 | 0.0 | 0.00 | 0.03 | 0.00 | 100 | 976.1 |
| 20260902031324 | 76 | 173 | 0.0 | 0.0 | 0.00 | 0.03 | 0.00 | 100 | 976.1 |
| 20260902030644 | 76 | 173 | 0.0 | 0.0 | 0.00 | 0.03 | 0.00 | 100 | 976.1 |
| 20260902030006 | 76 | 173 | 0.0 | 0.0 | 0.00 | 0.03 | 0.00 | 100 | 976.1 |
| 20260902025441 | 76 | 173 | 0.0 | 0.0 | 0.00 | 0.03 | 0.00 | 100 | 976.2 |
| 20260902025327 | 76 | 173 | 0.0 | 0.0 | 0.00 | 0.03 | 0.00 | 100 | 976.2 |
| 20260902024649 | 77 | 173 | 0.0 | 0.0 | 0.00 | 0.03 | 0.00 | 100 | 976.2 |
| 20260902023548 | 77 | 173 | 0.0 | 0.0 | 0.00 | 0.03 | 0.00 | 100 | 976.0 |
| 20260902023332 | 77 | 173 | 0.0 | 0.0 | 0.00 | 0.03 | 0.00 | 100 | 976.0 |
| 20260902022802 | 77 | 173 | 0.0 | 0.0 | 0.00 | 0.03 | 0.00 | 100 | 976.1 |
| 20260902022651 | 77 | 173 | 0.0 | 0.0 | 0.00 | 0.03 | 0.00 | 100 | 976.1 |
| 20260902022013 | 77 | 173 | 0.0 | 0.0 | 0.00 | 0.03 | 0.00 | 100 | 976.0 |
| 20260902021334 | 77 | 173 | 0.0 | 0.0 | 0.00 | 0.03 | 0.00 | 100 | 976.2 |
| 20260902020016 | 78 | 173 | 0.0 | 0.0 | 0.00 | 0.03 | 0.00 | 100 | 976.0 |
| 20260902015339 | 78 | 173 | 0.0 | 0.0 | 0.00 | 0.03 | 0.00 | 100 | 976.0 |
| 20260902014658 | 78 | 173 | 0.0 | 0.0 | 0.00 | 0.03 | 0.00 | 100 | 976.0 |
| 20260902014021 | 78 | 173 | 0.0 | 0.0 | 0.00 | 0.03 | 0.00 | 100 | 975.9 |
| 20260902012703 | 78 | 173 | 0.0 | 0.0 | 0.00 | 0.03 | 0.00 | 100 | 976.0 |
| 20260902011345 | 79 | 173 | 0.0 | 0.0 | 0.00 | 0.03 | 0.00 | 100 | 975.8 |
| 20260902010028 | 79 | 173 | 0.0 | 0.0 | 0.00 | 0.03 | 0.00 | 100 | 975.4 |
| 20260902005347 | 79 | 173 | 0.0 | 0.0 | 0.00 | 0.03 | 0.00 | 100 | 975.3 |
| 20260902004808 | 79 | 173 | 0.0 | 0.0 | 0.00 | 0.03 | 0.00 | 99 | 975.4 |
| 20260902004710 | 79 | 173 | 0.0 | 0.0 | 0.00 | 0.03 | 0.00 | 99 | 975.4 |
| 20260902003533 | 80 | 173 | 0.0 | 0.0 | 0.00 | 0.03 | 0.00 | 98 | 975.4 |
| 20260902003352 | 80 | 173 | 0.0 | 0.0 | 0.00 | 0.03 | 0.00 | 98 | 975.4 |
| 20260902002155 | 80 | 217 | 3.0 | 3.0 | 0.00 | 0.03 | 0.00 | 98 | 975.5 |
| 20260902002034 | 80 | 217 | 3.0 | 3.0 | 0.00 | 0.03 | 0.00 | 98 | 975.5 |
| 20260902000859 | 81 | 191 | 6.0 | 6.0 | 0.00 | 0.03 | 0.00 | 96 | 975.3 |
| 20260902000716 | 81 | 191 | 6.0 | 6.0 | 0.00 | 0.03 | 0.00 | 96 | 975.3 |
| 20260902000149 | 81 | 146 | 5.0 | 1.0 | 0.00 | 0.03 | 0.00 | 96 | 975.2 |
| 20260902000035 | 81 | 146 | 5.0 | 1.0 | 0.00 | 0.03 | 0.00 | 96 | 975.2 |
| 20260901235358 | 81 | 198 | 3.0 | 0.0 | 0.00 | 0.03 | 0.00 | 95 | 975.1 |
| 20260901234717 | 82 | 183 | 4.0 | 3.0 | 0.00 | 0.03 | 0.00 | 94 | 975.1 |
| 20260901234251 | 82 | 245 | 6.0 | 6.0 | 0.00 | 0.03 | 0.00 | 92 | 975.0 |
| 20260901234040 | 82 | 245 | 6.0 | 6.0 | 0.00 | 0.03 | 0.00 | 92 | 975.0 |
| 20260901233639 | 83 | 198 | 5.0 | 3.0 | 0.00 | 0.03 | 0.00 | 91 | 974.8 |
| 20260901233359 | 83 | 198 | 5.0 | 3.0 | 0.00 | 0.03 | 0.00 | 91 | 974.8 |